Location: ??????
(55.7522°N, 37.6156°E)
Time: 17:45:32
(UTC+00:00)

Cosmos 2233 Rocket - Pass Details

Date: 14 June 2025
Orbit: 953 x 989 km, 82.9° (Epoch: 13 July)

Event Time Altitude Azimuth Distance (km) Brightness Sun altitude
Rises 19:49:36 0° 347° (NNW) 3,705 9.1 -8.1°
Reaches altitude 10° 19:52:08 10° 345° (NNW) 2,756 8.0 -8.2°
Maximum altitude 19:58:24 68° 264° (W) 1,063 4.3 -8.6°
Drops below altitude 10° 20:04:39 10° 183° (S) 2,745 5.8 -8.9°
Enters shadow 20:05:03 - 183° (S) 2,897 5.9 -8.9°
